Regional Weather Roundup
Issued by NWS

Home | Current Version | Previous Version | Graphics & Text | Print | Product List | Glossary Off
Versions: 1 2 3 4 5 6 7 8 9 10 11 12 13 14 15 16 17 18 19 20 21 22 23 24 25 26 27 28 29 30 31 32 33 34 35 36 37 38 39 40 41 42 43 44 45 46 47 48 49 50

000
ASUS43 KMKX 230800
RWRWI

WISCONSIN REGIONAL WEATHER ROUNDUP
NATIONAL WEATHER SERVICE MILWAUKEE/SULLIVAN WI
300 AM CDT TUE SEP 23 2014

NOTE: "FAIR" INDICATES FEW OR NO CLOUDS BELOW 12,000 FEET WITH NO
SIGNIFICANT WEATHER AND/OR OBSTRUCTIONS TO VISIBILITY.

WIZ001-002-006>008-014>016-023>028-230900-
NORTHWEST WISCONSIN

CITY           SKY/WX    TMP DP  RH WIND       PRES   REMARKS
SUPERIOR ARPT  CLEAR     51  50  95 SW6       30.17R
ASHLAND        CLEAR     54  50  86 SW7       30.18S
HAYWARD        CLEAR     43  42  97 CALM      30.20S
SIREN          CLEAR     47  46  96 CALM      30.19S
CUMBERLAND     MOSUNNY   43  43 100 CALM      30.20F
RICE LAKE      CLEAR     45  44  97 CALM      30.21F FOG
CHETEK         SUNNY     45  45 100 CALM      30.21F
LADYSMITH      CLEAR     45  44  95 CALM      30.23S
EAU CLAIRE     FOG       46  44  93 CALM      30.20F VSB 1/2
MENOMONIE      SUNNY     47  46  97 CALM      30.21S
NEW RICHMOND   CLEAR     49  48  95 S3        30.20S
OSCEOLA        CLEAR     51  50  97 S5        30.21F
$$

WIZ003>005-009-010-017-018-230900-
NORTH CENTRAL WISCONSIN

CITY           SKY/WX    TMP DP  RH WIND       PRES   REMARKS
MANITOWISH WTR FOG       44  44 100 CALM      30.20S VSB 1/2
ARBOR VITAE    CLEAR     46  44  93 CALM      30.21S
WOODRUFF       CLEAR     46  44  93 CALM      30.21S
RHINELANDER    CLEAR     45  44  97 W7        30.22S
EAGLE RIVER    PTCLDY    45  45 100 W3        30.20S FOG
LAND O LAKES   CLEAR     39  39 100 CALM      30.21S
PHILLIPS       CLEAR     44  43  98 CALM      30.21S
TOMAHAWK       FOG       41  40  97 CALM      30.21F VSB 1
MEDFORD        FOG       42  42 100 CALM      30.22S VSB 1/4
MERRILL        FOG       40  40 100 CALM      30.22S VSB 1/2
$$

WIZ029-030-035-036-043>047-230900-
CENTRAL WISCONSIN

CITY           SKY/WX    TMP DP  RH WIND       PRES   REMARKS
WAUSAU         CLEAR     49  47  93 CALM      30.21S
MOSINEE        CLEAR     50  50 100 W6        30.23S
MARSHFIELD     CLEAR     48  45  89 CALM      30.22S
STEVENS POINT  CLEAR     41  40  97 CALM      30.23S
WAUPACA        CLEAR     48  47  95 CALM      30.23R
WAUTOMA        NOT AVBL
WISC RAPIDS    CLEAR     44  43  96 CALM      30.24S FOG
CAMP DOUGLAS   FOG       39  39 100 E3        30.23R VSB 1/2
$$

WIZ011>013-019>022-031-037>040-048>050-230900-
NORTHEAST WISCONSIN

CITY           SKY/WX    TMP DP  RH WIND       PRES   REMARKS
ANTIGO         CLEAR     44  44  99 CALM      30.22S
SHAWANO        SUNNY     47  46  93 CALM      30.21S
OCONTO         SUNNY     49  49 100 CALM      30.19S
STURGEON BAY   CLEAR     54  48  82 W6        30.21R
GREEN BAY      CLEAR     47  46  97 CALM      30.21S
MANITOWOC      NOT AVBL
APPLETON       CLEAR     50  48  93 W7        30.22S
CLINTONVILLE   CLEAR     46  45  93 CALM      30.21S
OSHKOSH        CLEAR     50  49  96 SW5       30.22S
$$

WIZ032>034-041-042-053>061-230900-
SOUTHWEST WISCONSIN

CITY           SKY/WX    TMP DP  RH WIND       PRES   REMARKS
LA CROSSE      PTCLDY    51  49  92 SE7       30.23S
SPARTA         FOG       41  41  99 CALM      30.24S VSB 1/2
VIROQUA        SUNNY     52  49  89 CALM      30.24S
BOSCOBEL       FOG       46  44  93 CALM      30.26S VSB 1/4
PRAIRIE DU CHI CLEAR     48  47  94 CALM      30.25S
PLATTEVILLE    CLEAR     51  47  87 SE3       30.26S
$$

WIZ056-057-062-063-064-067-068-230900-
SOUTH CENTRAL WISCONSIN

CITY           SKY/WX    TMP DP  RH WIND       PRES   REMARKS
REEDSBURG      MOSUNNY   46  45  99 CALM      30.24S
BARABOO/DELLS  CLEAR     47  45  93 CALM      30.24S
LONE ROCK      FOG       46  42  86 CALM      30.26R VSB 1/2
MINERAL POINT  CLEAR     54  46  76 SW5       30.26S
MADISON        CLEAR     48  45  89 CALM      30.25S
MIDDLETON      SUNNY     46  46  99 CALM      30.25S
WATERTOWN      CLEAR     44  44  99 CALM      30.24S
MONROE         CLEAR     50  46  87 SW8       30.26S
JANESVILLE     CLEAR     46  45  93 CALM      30.25F
$$

WIZ051-052-058>065-066-070>072-230900-
SOUTHEAST WISCONSIN

CITY           SKY/WX    TMP DP  RH WIND       PRES   REMARKS
MILWAUKEE      CLEAR     53  46  77 CALM      30.25S
WAUKESHA       CLEAR     46  45  93 CALM      30.26S
MILWAUKEE/TIMM CLEAR     46  45  93 CALM      30.25F
RACINE         CLEAR     53  46  77 W5        30.27S
BURLINGTON     CLEAR     41  41 100 CALM      30.25F FOG
KENOSHA        CLEAR     46  45  96 SW3       30.26S
FOND DU LAC    CLEAR     51  47  86 SW5       30.24R
SHEBOYGAN      CLEAR     47  45  93 SW3       30.23S
WEST BEND      CLEAR     45  43  93 CALM      30.24S
JUNEAU         CLEAR     48  47  94 CALM      30.25S
$$

LSZ147-162-230900-
LAKE SUPERIOR

STATION/POSITION TIME  TEMP    WIND        PRES    WAVE
                       AIR SEA DIR/SP/G            HT/PER
                 (UTC) (F)     (DEG/KT/KT) (MB)    (FT/S)
W MID LAKE BUOY  0650   52 48  240/ 12/ 14 1020.0R   2/ 4
DEVILS ISLAND    0700   58     240/ 15/ 17 1020.9R
PORT WING        0700   53     140/  2/  3 1021.3R
SAXON HARBOR     0700   57     190/  6/ 10 1021.7
$$

LMZ867-665-643>646-230900-
LAKE MICHIGAN

STATION/POSITION TIME  TEMP    WIND        PRES    WAVE
                       AIR SEA DIR/SP/G            HT/PER
                 (UTC) (F)     (DEG/KT/KT) (MB)    (FT/S)
CHAMBERS ISLAND  0700   56     220/  4/  8 1022.0S
S GREEN BAY BUOY 0700   59                 1023.3R
N MID LAKE BUOY  0650   58 57  240/ 12/ 14 1021.7R   2/ 5
NORTHPORT PIER   0700   58     270/  6/ 10 1021.7R
KEWAUNEE LAKESHO 0700   51     300/  5/  6 1021.8R
SHEBOYGAN LAKESH 0700   55 54  240/  9/ 10 1024.0R
PORT WASHINGTON  0700   54     270/  4/  6 1024.4
ATWATER BUOY     0700   57     230/ 10/ 10 1025.0R
S MID LAKE BUOY  0650   61 62  220/ 14/ 16 1024.7S   2/ 4
KENOSHA   LAKESH 0700   54     250/  8/  9 1024.4S
$$

TC  - TEMPERATURE IN CELSIUS
VSB - VISIBILITY IN STATUTE MILES
WCI - WIND CHILL INDEX
HX  - HEAT INDEX



USA.gov is the U.S. government's official web portal to all federal, state and local government web resources and services.